Tracking 20945 objects as of 9-Jul-2020
HD Live streaming from Space Station
objects crossing your sky now

SL-8 R/B

Track SL-8 R/B now!
10-day predictions


NORAD ID: 15752
Int'l Code: 1985-041B
Perigee: 978.8 km
Apogee: 1,012.3 km
Inclination: 82.9 °
Period: 104.9 minutes
Semi major axis: 7366 km
RCS: 4.952 m2 (large)
Launch date: May 30, 1985
Source: Commonwealth of Independent States (former USSR) (CIS)
Launch site: PLESETSK MISSILE AND SPACE COMPLEX (PKMTR)

Note: This is a ROCKET BODY
aabbcc
Your satellite tracking list
Your tracking list is empty




NASA's NSSDC Master Catalog

Two Line Element Set (TLE):
1 15752U 85041B   20190.79110392  .00000110  00000-0  10267-3 0  9993
2 15752  82.9484 202.1410 0022683 261.7232  98.1351 13.73112839759232
Source of the keplerian elements: AFSPC